TimeCDT,TemperatureF,Dew PointF,Humidity,Sea Level PressureIn,VisibilityMPH,Wind Direction,Wind SpeedMPH,Gust SpeedMPH,PrecipitationIn,Events,Conditions,WindDirDegrees,DateUTC
12:56 AM,64.9,64.0,97,29.86,8.0,SE,4.6,-,N/A,,Scattered Clouds,130,2013-06-12 05:56:00
1:56 AM,64.0,64.0,100,29.87,5.0,North,3.5,-,0.01,,Partly Cloudy,360,2013-06-12 06:56:00
2:11 AM,64.4,64.4,100,29.91,7.0,NNW,5.8,-,0.01,Rain-Thunderstorm,Light Rain,340,2013-06-12 07:11:00
2:26 AM,64.4,64.4,100,29.85,7.0,SE,5.8,-,0.01,,Scattered Clouds,130,2013-06-12 07:26:00
2:56 AM,64.9,64.9,100,29.86,6.0,WSW,4.6,-,0.02,Rain,Light Rain,250,2013-06-12 07:56:00
3:56 AM,64.9,64.0,97,29.91,5.0,NNW,3.5,-,0.00,,Mostly Cloudy,340,2013-06-12 08:56:00
4:56 AM,66.0,64.0,93,29.78,10.0,ESE,12.7,-,N/A,,Partly Cloudy,120,2013-06-12 09:56:00
5:56 AM,64.0,60.1,87,29.86,10.0,North,6.9,-,0.00,Rain,Light Rain,360,2013-06-12 10:56:00
6:56 AM,63.0,59.0,87,29.87,10.0,SE,3.5,-,0.01,Rain,Light Rain,140,2013-06-12 11:56:00
7:56 AM,64.9,60.1,84,29.82,10.0,ESE,13.8,20.7,0.00,,Mostly Cloudy,110,2013-06-12 12:56:00
8:56 AM,69.1,60.1,73,29.81,10.0,East,8.1,-,N/A,,Partly Cloudy,100,2013-06-12 13:56:00
9:56 AM,69.1,62.1,78,29.83,10.0,East,6.9,-,N/A,,Overcast,90,2013-06-12 14:56:00
10:56 AM,66.9,63.0,87,29.82,10.0,NNE,5.8,-,0.00,Rain,Light Rain,20,2013-06-12 15:56:00
11:56 AM,66.0,64.0,93,29.83,10.0,Calm,Calm,-,0.11,Rain,Light Rain,0,2013-06-12 16:56:00
12:20 PM,66.2,62.6,88,29.85,10.0,Calm,Calm,-,0.00,Rain,Light Rain,0,2013-06-12 17:20:00
12:56 PM,66.0,64.0,93,29.85,10.0,Calm,Calm,-,0.00,,Overcast,0,2013-06-12 17:56:00
1:36 PM,66.2,64.4,94,29.82,10.0,ENE,6.9,-,N/A,,Overcast,70,2013-06-12 18:36:00
1:56 PM,66.9,64.0,90,29.81,10.0,NE,6.9,-,N/A,,Overcast,40,2013-06-12 18:56:00
2:56 PM,66.9,64.9,93,29.80,9.0,NNE,5.8,-,0.02,Rain,Light Rain,20,2013-06-12 19:56:00
3:17 PM,66.2,64.4,94,29.82,5.0,North,4.6,-,0.03,Rain-Thunderstorm,Rain,350,2013-06-12 20:17:00
3:56 PM,66.9,64.9,93,29.75,9.0,ENE,12.7,-,0.10,Rain,Light Rain,60,2013-06-12 20:56:00
4:56 PM,68.0,66.0,93,29.76,10.0,NNE,6.9,-,0.01,Rain,Light Rain,20,2013-06-12 21:56:00
5:56 PM,70.0,64.9,84,29.77,10.0,NNE,6.9,-,0.00,,Mostly Cloudy,30,2013-06-12 22:56:00
6:56 PM,69.1,63.0,81,29.76,10.0,NNE,5.8,-,N/A,,Mostly Cloudy,30,2013-06-12 23:56:00
7:56 PM,68.0,63.0,84,29.79,10.0,NNE,4.6,-,N/A,,Partly Cloudy,30,2013-06-13 00:56:00
8:56 PM,66.9,63.0,87,29.81,10.0,Calm,Calm,-,N/A,,Overcast,0,2013-06-13 01:56:00
9:56 PM,66.0,63.0,90,29.82,10.0,North,3.5,-,N/A,,Overcast,350,2013-06-13 02:56:00
10:56 PM,64.0,62.1,93,29.82,10.0,Calm,Calm,-,N/A,,Overcast,0,2013-06-13 03:56:00
11:56 PM,64.0,62.1,93,29.84,10.0,North,3.5,-,N/A,,Overcast,360,2013-06-13 04:56:00